Simultaneous Nadir Overpasses (SNOs) Predictions

Prediction of SNOs between GOES-14 and NPP Satellite Orbit:

Table of predicted SNOs for the next 14.0 days since TLE Epoch: 7/24/2021
Index Date Time (GOES-14) GOES-14 Lat,Lon NPP Lat,Lon Distance(km) Time Diff (sec)
1 07/24/2021 20:33:44 0.29,-104.34 -0.42,-107.46 354.89 80
2 07/25/2021 20:17:40 0.27,-104.35 0.56,-102.92 162.34 80
3 07/27/2021 08:39:29 -0.31,-104.13 0.58,-108.20 463.03 80
4 07/28/2021 08:20:44 -0.29,-104.13 -0.40,-103.66 53.71 80
5 07/30/2021 20:21:19 0.30,-104.37 0.31,-104.46 9.96 80
6 08/02/2021 08:27:03 -0.33,-104.17 -0.09,-105.19 116.48 80
7 08/03/2021 08:05:39 -0.31,-104.17 -1.07,-100.65 400.08 80
8 08/04/2021 20:27:38 0.35,-104.39 0.00,-105.99 182.01 80
9 08/05/2021 20:11:33 0.34,-104.39 0.99,-101.45 335.33 80
